DW7040 Weather Reports


Display with metric or nautical units.
time (UTC)temp
F
wind
direction
speed
MPH
gust
MPH
rain 1hr
in
rain 24hr
in
rain mn
in
humidity
%
barometer
mb
20260902034542 0 0.0 0.0 0.00 0.00 0.00 1006.4
20260902033042 0 0.0 0.0 0.00 0.00 0.00 1006.5
20260902030013 0 0.0 0.0 0.00 0.00 0.00 1006.8
20260902024540 0 0.0 0.0 0.00 0.00 0.00 1006.9
20260902023036 0 0.0 0.0 0.00 0.00 0.00 1006.8
20260902021506 0 0.0 0.0 0.00 0.00 0.00 1006.9
20260902020043 0 0.0 0.0 0.00 0.00 0.00 1007.1
20260902014539 0 0.0 0.0 0.00 0.00 0.00 1007.2
20260902013009 0 243 0.0 0.0 0.00 0.00 0.00 1007.3
20260902011528 0 243 0.0 0.0 0.00 0.00 0.00 1007.3
20260902010009 0 243 0.0 0.0 0.00 0.00 0.00 1007.3
20260902004548 0 243 0.0 0.0 0.00 0.00 0.00 1007.5
20260902003034 0 242 0.0 0.0 0.00 0.00 0.00 1007.4
20260902001538 0 242 0.0 0.0 0.00 0.00 0.00 1007.5
20260902000033 0 243 0.0 0.0 0.00 0.00 0.00 1007.5
20260901234509 0 242 0.0 0.0 0.00 0.00 0.00 1007.7
20260901233024 0 242 0.0 0.0 0.00 0.00 0.00 1007.6
20260901231547 0 243 0.0 0.0 0.00 0.00 0.00 1007.7
20260901230036 0 242 0.0 0.0 0.00 0.00 0.00 1007.9
20260901224600 0 242 0.0 0.0 0.00 0.00 0.00 1007.8
20260901223056 0 243 0.0 0.0 0.00 0.00 0.00 1007.8
20260901221519 0 242 0.0 0.0 0.00 0.00 0.00 1007.8
20260901220045 0 242 0.0 0.0 0.00 0.00 0.00 1007.7
20260901214518 0 242 0.0 0.0 0.00 0.00 0.00 1007.5
20260901213014 0 242 0.0 0.0 0.00 0.00 0.00 1007.7
20260901211521 0 242 0.0 0.0 0.00 0.00 0.00 1007.8
20260901210043 0 243 0.0 0.0 0.00 0.00 0.00 1007.7
20260901204540 0 242 0.0 0.0 0.00 0.00 0.00 1007.9
20260901203044 0 242 0.0 0.0 0.00 0.00 0.00 1007.9
20260901201531 0 243 0.0 0.0 0.00 0.00 0.00 1008.0
20260901200040 0 242 0.0 0.0 0.00 0.00 0.00 1008.0
20260901194555 0 242 0.0 0.0 0.00 0.00 0.00 1008.0
20260901193036 0 242 0.0 0.0 0.00 0.00 0.00 1008.0
20260901191534 0 242 0.0 0.0 0.00 0.00 0.00 1007.9
20260901190029 0 242 0.0 0.0 0.00 0.00 0.00 1007.7
20260901184512 0 242 0.0 0.0 0.00 0.00 0.00 1007.7
20260901183043 0 243 0.0 0.0 0.00 0.00 0.00 1007.6
20260901181537 0 241 0.0 0.0 0.00 0.00 0.00 1007.7
20260901180027 0 242 0.0 0.0 0.00 0.00 0.00 1007.7
20260901174525 0 242 0.0 0.0 0.00 0.00 0.00 1007.7
20260901173050 0 242 0.0 0.0 0.00 0.00 0.00 1007.8
20260901171527 0 243 0.0 0.0 0.00 0.00 0.00 1007.8
20260901170048 0 242 0.0 0.0 0.00 0.00 0.00 1007.8
20260901164546 0 243 0.0 0.0 0.00 0.00 0.00 1007.7
20260901161606 0 242 0.0 0.0 0.00 0.00 0.00 1007.8
20260901160055 0 243 0.0 0.0 0.00 0.00 0.00 1008.0
20260901154515 0 243 0.0 0.0 0.00 0.00 0.00 1008.0
20260901153036 0 243 0.0 0.0 0.00 0.00 0.00 1008.0
20260901151527 0 241 0.0 0.0 0.00 0.00 0.00 1008.0
20260901150023 0 237 0.0 0.0 0.00 0.00 0.00 1008.0
20260901144516 0 241 0.0 0.0 0.00 0.00 0.00 1007.9
20260901143059 0 243 0.0 0.0 0.00 0.00 0.00 1007.8
20260901141554 0 243 0.0 0.0 0.00 0.00 0.00 1008.0
20260901140029 0 243 0.0 0.0 0.00 0.00 0.00 1007.9
20260901134506 0 240 0.0 0.0 0.00 0.00 0.00 1008.0
20260901133044 0 242 0.0 0.0 0.00 0.00 0.00 1008.2
20260901131531 0 245 0.0 0.0 0.00 0.00 0.00 1008.1
20260901130012 0 243 0.0 0.0 0.00 0.00 0.00 1008.4
20260901124548 0 243 0.0 0.0 0.00 0.00 0.00 1008.4
20260901123039 0 243 0.0 0.0 0.00 0.00 0.00 1008.3
20260901121539 0 243 0.0 0.0 0.00 0.00 0.00 1008.2
20260901120032 0 239 0.0 0.0 0.00 0.00 0.00 1008.2
20260901120009 0 237 0.0 0.0 0.00 0.00 0.00 1008.2
20260901114520 0 243 0.0 0.0 0.00 0.00 0.00 1008.1
20260901113019 0 240 0.0 0.0 0.00 0.00 0.00 1008.2
20260901111524 0 243 0.0 0.0 0.00 0.00 0.00 1008.1
20260901110045 0 240 0.0 0.0 0.00 0.00 0.00 1008.1
20260901104539 0 243 0.0 0.0 0.00 0.00 0.00 1008.2
20260901103047 0 243 0.0 0.0 0.00 0.00 0.00 1008.2
20260901101545 0 243 0.0 0.0 0.00 0.00 0.00 1008.1
20260901100044 0 243 0.0 0.0 0.00 0.00 0.00 1008.1
20260901094600 0 243 0.0 0.0 0.00 0.00 0.00 1008.1
20260901093022 0 242 0.0 0.0 0.00 0.00 0.00 1008.3
20260901091558 0 240 0.0 0.0 0.00 0.00 0.00 1008.3
20260901090044 0 242 0.0 0.0 0.00 0.00 0.00 1008.2
20260901084521 0 242 0.0 0.0 0.00 0.00 0.00 1008.0
20260901083057 0 242 0.0 0.0 0.00 0.00 0.00 1008.0
20260901081538 0 243 0.0 0.0 0.00 0.00 0.00 1008.0
20260901080049 0 242 0.0 0.0 0.00 0.00 0.00 1008.2
20260901074529 0 242 0.0 0.0 0.00 0.00 0.00 1008.3
20260901073040 0 242 0.0 0.0 0.00 0.00 0.00 1008.3
20260901071502 0 242 0.0 0.0 0.00 0.00 0.00 1008.3
20260901070056 0 243 0.0 0.0 0.00 0.00 0.00 1008.2
20260901064532 0 243 0.0 0.0 0.00 0.00 0.00 1008.4
20260901063016 0 242 0.0 0.0 0.00 0.00 0.00 1008.2
20260901061552 0 243 0.0 0.0 0.00 0.00 0.00 1008.1
20260901060009 0 243 0.0 0.0 0.00 0.00 0.00 1007.9
20260901054548 0 0.0 0.0 0.00 0.00 0.00 1007.9
20260901053037 0 0.0 0.0 0.00 0.00 0.00 1007.9
20260901051526 0 0.0 0.0 0.00 0.00 0.00 1007.9
20260901050020 0 0.0 0.0 0.00 0.00 0.00 1007.8
20260901044511 0 0.0 0.0 0.00 0.00 0.00 1007.9
20260901043008 0 0.0 0.0 0.00 0.00 0.00 1007.8
20260901041524 0 0.0 0.0 0.00 0.00 0.00 1007.9
20260901040114 0 0.0 0.0 0.00 0.00 0.00 1007.9